Orbital Elements at Epoch 2459000.5 (2020-May-31.0) TDB
Reference: JPL 24 (heliocentric ecliptic J2000)
Element | Value | Uncertainty (1-sigma) | Units |
e | .1391816704290456 | 3.651e-08 | |
a | 2.320038705882128 | 8.2993e-09 | au |
q | 1.997131843337412 | 8.5684e-08 | au |
i | 4.819622100018063 | 3.2104e-06 | deg |
node | 82.05445594626153 | 4.4838e-05 | deg |
peri | 240.08208619664 | 4.6424e-05 | deg |
M | 338.0702993337675 | 1.0899e-05 | deg |
tp | 2459079.126958341926 (2020-Aug-17.62695834) | 3.9019e-05 | TDB |
period | 1290.74744037335 3.53 | 6.9259e-06 1.896e-08 | d yr |
n | .2789081649434607 | 1.4966e-09 | deg/d |
Q | 2.642945568426844 | 9.4544e-09 | au |
|
| | Orbit Determination Parameters
Additional Information
|